GFSSE_prec_precacc12_159.txt.gz
Total_Precipitation_Accumulation
0.07 0.22 0.10 0.00 0.00 0.00 0.00 0.00 0.00 0.00 0.03 0.05 0.03 0.03 0.04 0.04 0.04 0.01 0.06 0.09 0.10 0.06 0.09 0.09 0.06 0.03 0.01 0.03 0.10 0.09 0.21 0.16 0.21 0.14 0.08 0.03 0.05 0.10 0.13 0.12 0.14 0.01 0.04
0.00 0.01 0.11 0.02 0.00 0.03 0.03 0.01 0.00 0.00 0.00 0.00 0.00 0.01 0.01 0.04 0.08 0.01 0.03 0.02 0.04 0.06 0.03 0.08 0.04 0.01 0.01 0.04 0.05 0.06 0.09 0.12 0.23 0.33 0.15 0.07 0.03 0.07 0.12 0.12 0.17 0.01 0.02
0.00 0.00 0.06 0.09 0.01 0.04 0.02 0.00 0.00 0.00 0.00 0.00 0.01 0.01 0.02 0.05 0.01 0.01 0.01 0.06 0.06 0.09 0.11 0.05 0.03 0.04 0.03 0.08 0.07 0.11 0.17 0.20 0.18 0.28 0.32 0.16 0.01 0.02 0.01 0.03 0.03 0.02 0.03
0.00 0.00 0.00 0.10 0.01 0.01 0.00 0.00 0.00 0.00 0.00 0.01 0.02 0.06 0.04 0.02 0.05 0.09 0.05 0.12 0.07 0.06 0.04 0.02 0.02 0.02 0.06 0.11 0.08 0.10 0.14 0.13 0.11 0.10 0.04 0.01 0.00 0.01 0.01 0.02 0.03 0.03 0.04
0.01 0.04 0.00 0.01 0.00 0.00 0.00 0.00 0.00 0.00 0.01 0.01 0.02 0.04 0.07 0.03 0.09 0.07 0.13 0.07 0.04 0.03 0.02 0.01 0.00 0.00 0.01 0.03 0.02 0.03 0.02 0.01 0.00 0.00 0.00 0.00 0.00 0.00 0.00 0.01 0.02 0.03 0.04
0.16 0.09 0.01 0.01 0.00 0.00 0.02 0.01 0.01 0.00 0.00 0.00 0.02 0.04 0.04 0.02 0.06 0.14 0.16 0.04 0.04 0.04 0.06 0.02 0.00 0.00 0.00 0.00 0.00 0.00 0.00 0.00 0.01 0.00 0.00 0.00 0.00 0.00 0.00 0.01 0.02 0.00 0.01
0.09 0.12 0.21 0.10 0.12 0.00 0.02 0.01 0.02 0.00 0.00 0.02 0.00 0.02 0.03 0.04 0.09 0.15 0.15 0.07 0.02 0.02 0.00 0.00 0.00 0.00 0.00 0.00 0.01 0.02 0.03 0.04 0.01 0.00 0.00 0.00 0.00 0.00 0.00 0.00 0.01 0.00 0.00
0.07 0.04 0.29 0.12 0.11 0.03 0.01 0.00 0.02 0.01 0.01 0.00 0.03 0.12 0.20 0.24 0.34 0.20 0.11 0.04 0.00 0.00 0.00 0.00 0.00 0.00 0.00 0.01 0.04 0.04 0.04 0.01 0.01 0.02 0.00 0.00 0.00 0.00 0.00 0.00 0.00 0.01 0.01
0.08 0.01 0.19 0.32 0.02 0.00 0.00 0.07 0.16 0.04 0.01 0.04 0.05 0.16 0.18 0.12 0.26 0.18 0.06 0.00 0.00 0.00 0.00 0.00 0.00 0.00 0.00 0.00 0.03 0.04 0.02 0.00 0.01 0.04 0.03 0.00 0.00 0.00 0.00 0.00 0.00 0.00 0.01
0.02 0.01 0.01 0.14 0.11 0.06 0.06 0.12 0.22 0.12 0.01 0.03 0.01 0.09 0.10 0.08 0.10 0.06 0.00 0.00 0.00 0.00 0.00 0.00 0.00 0.00 0.00 0.00 0.00 0.00 0.02 0.02 0.00 0.02 0.06 0.00 0.00 0.00 0.00 0.03 0.03 0.00 0.00
0.01 0.02 0.00 0.00 0.01 0.03 0.04 0.09 0.14 0.15 0.07 0.04 0.01 0.06 0.05 0.01 0.00 0.00 0.00 0.00 0.00 0.00 0.00 0.00 0.00 0.00 0.00 0.00 0.00 0.00 0.00 0.00 0.04 0.06 0.05 0.00 0.00 0.00 0.00 0.01 0.01 0.01 0.03
0.04 0.02 0.00 0.00 0.00 0.01 0.04 0.20 0.19 0.05 0.04 0.00 0.04 0.06 0.03 0.02 0.00 0.00 0.00 0.00 0.00 0.00 0.00 0.00 0.00 0.00 0.00 0.00 0.01 0.01 0.06 0.03 0.03 0.05 0.03 0.00 0.00 0.00 0.00 0.00 0.00 0.00 0.00
0.01 0.00 0.00 0.00 0.00 0.03 0.04 0.05 0.08 0.00 0.00 0.00 0.01 0.01 0.00 0.00 0.00 0.00 0.00 0.00 0.00 0.00 0.00 0.00 0.00 0.00 0.00 0.00 0.01 0.03 0.05 0.02 0.00 0.01 0.00 0.00 0.00 0.00 0.02 0.01 0.00 0.00 0.00
0.00 0.00 0.00 0.00 0.00 0.05 0.04 0.01 0.01 0.00 0.00 0.00 0.01 0.00 0.00 0.00 0.00 0.00 0.00 0.00 0.00 0.00 0.00 0.01 0.00 0.01 0.00 0.00 0.00 0.00 0.00 0.01 0.00 0.01 0.00 0.00 0.00 0.00 0.00 0.00 0.00 0.00 0.00
0.00 0.00 0.00 0.00 0.00 0.00 0.00 0.00 0.00 0.00 0.00 0.01 0.01 0.00 0.00 0.00 0.00 0.01 0.03 0.08 0.04 0.01 0.02 0.01 0.00 0.01 0.01 0.00 0.00 0.02 0.01 0.00 0.00 0.01 0.00 0.00 0.00 0.00 0.00 0.00 0.00 0.02 0.03
0.00 0.00 0.00 0.00 0.00 0.00 0.00 0.01 0.01 0.00 0.00 0.00 0.00 0.00 0.00 0.00 0.00 0.03 0.01 0.00 0.01 0.02 0.02 0.02 0.01 0.02 0.00 0.00 0.00 0.00 0.01 0.01 0.00 0.00 0.00 0.00 0.00 0.00 0.00 0.00 0.04 0.08 0.06
0.00 0.00 0.00 0.00 0.00 0.00 0.01 0.01 0.01 0.00 0.00 0.00 0.00 0.00 0.10 0.06 0.00 0.06 0.02 0.03 0.06 0.05 0.02 0.02 0.00 0.01 0.00 0.00 0.00 0.00 0.00 0.00 0.00 0.00 0.00 0.00 0.03 0.00 0.00 0.00 0.02 0.05 0.03
0.00 0.00 0.00 0.00 0.00 0.00 0.00 0.00 0.00 0.00 0.00 0.00 0.00 0.00 0.03 0.08 0.01 0.09 0.08 0.31 0.05 0.04 0.03 0.03 0.01 0.02 0.00 0.00 0.00 0.00 0.00 0.00 0.00 0.00 0.02 0.01 0.06 0.06 0.03 0.02 0.01 0.00 0.00
0.00 0.00 0.00 0.01 0.00 0.00 0.00 0.00 0.00 0.00 0.00 0.00 0.00 0.00 0.00 0.03 0.00 0.04 0.19 0.24 0.02 0.09 0.02 0.10 0.04 0.02 0.00 0.00 0.00 0.00 0.00 0.00 0.00 0.00 0.03 0.08 0.31 0.14 0.08 0.04 0.02 0.00 0.00
0.00 0.00 0.00 0.00 0.00 0.00 0.00 0.00 0.01 0.00 0.00 0.00 0.00 0.00 0.00 0.00 0.00 0.02 0.05 0.01 0.01 0.03 0.05 0.26 0.05 0.00 0.00 0.01 0.08 0.03 0.00 0.00 0.00 0.00 0.02 0.07 0.19 0.09 0.08 0.09 0.03 0.00 0.00
0.00 0.00 0.00 0.00 0.00 0.00 0.00 0.00 0.01 0.00 0.00 0.00 0.00 0.00 0.00 0.00 0.00 0.00 0.01 0.01 0.00 0.00 0.01 0.00 0.00 0.00 0.00 0.00 0.01 0.07 0.01 0.01 0.01 0.03 0.04 0.07 0.07 0.04 0.08 0.01 0.02 0.01 0.01
0.00 0.00 0.00 0.00 0.01 0.00 0.00 0.00 0.00 0.00 0.00 0.00 0.00 0.00 0.00 0.00 0.00 0.00 0.00 0.00 0.00 0.01 0.00 0.00 0.00 0.00 0.00 0.00 0.00 0.00 0.02 0.10 0.19 0.10 0.04 0.02 0.06 0.05 0.05 0.01 0.02 0.02 0.01
0.00 0.00 0.00 0.01 0.01 0.00 0.00 0.00 0.00 0.00 0.00 0.00 0.01 0.00 0.00 0.00 0.00 0.00 0.00 0.00 0.01 0.01 0.01 0.00 0.00 0.00 0.00 0.00 0.00 0.00 0.01 0.06 0.02 0.04 0.12 0.09 0.04 0.03 0.04 0.01 0.03 0.01 0.05
0.00 0.00 0.00 0.00 0.00 0.00 0.02 0.00 0.00 0.00 0.00 0.00 0.00 0.01 0.00 0.00 0.00 0.00 0.00 0.00 0.00 0.00 0.01 0.00 0.00 0.00 0.00 0.00 0.01 0.00 0.01 0.00 0.00 0.01 0.05 0.08 0.05 0.02 0.00 0.02 0.02 0.03 0.03
0.00 0.00 0.00 0.00 0.00 0.00 0.00 0.03 0.02 0.00 0.00 0.00 0.00 0.01 0.01 0.01 0.00 0.00 0.00 0.00 0.00 0.00 0.01 0.00 0.01 0.00 0.00 0.00 0.03 0.03 0.00 0.01 0.07 0.17 0.06 0.00 0.00 0.00 0.00 0.01 0.01 0.01 0.07
0.00 0.00 0.00 0.00 0.00 0.00 0.00 0.01 0.02 0.01 0.00 0.03 0.03 0.04 0.04 0.02 0.00 0.00 0.00 0.00 0.00 0.00 0.03 0.03 0.01 0.00 0.00 0.02 0.01 0.04 0.04 0.03 0.05 0.08 0.09 0.01 0.00 0.00 0.00 0.00 0.00 0.02 0.06

GFSSE_prec_precacc12_162.txt.gz
Total_Precipitation_Accumulation
0.06 0.29 0.12 0.03 0.00 0.00 0.00 0.00 0.00 0.00 0.00 0.00 0.00 0.02 0.02 0.02 0.04 0.01 0.06 0.08 0.10 0.08 0.08 0.08 0.04 0.03 0.01 0.04 0.11 0.10 0.20 0.16 0.20 0.14 0.08 0.03 0.05 0.09 0.14 0.13 0.06 0.02 0.16
0.00 0.03 0.13 0.04 0.01 0.03 0.04 0.01 0.00 0.00 0.00 0.00 0.00 0.01 0.01 0.04 0.05 0.02 0.02 0.01 0.06 0.07 0.03 0.06 0.03 0.00 0.01 0.02 0.04 0.04 0.09 0.11 0.19 0.30 0.13 0.12 0.05 0.04 0.06 0.01 0.00 0.01 0.07
0.00 0.00 0.07 0.16 0.09 0.05 0.03 0.00 0.00 0.00 0.00 0.00 0.00 0.01 0.01 0.02 0.01 0.00 0.01 0.06 0.06 0.08 0.06 0.03 0.03 0.03 0.03 0.07 0.06 0.11 0.17 0.20 0.16 0.22 0.26 0.25 0.11 0.04 0.01 0.00 0.00 0.01 0.01
0.00 0.00 0.00 0.13 0.05 0.03 0.00 0.00 0.00 0.00 0.00 0.00 0.00 0.05 0.00 0.01 0.01 0.00 0.05 0.11 0.05 0.05 0.05 0.02 0.02 0.02 0.06 0.11 0.08 0.10 0.14 0.13 0.09 0.06 0.04 0.04 0.03 0.02 0.01 0.03 0.04 0.04 0.05
0.00 0.00 0.00 0.05 0.03 0.00 0.00 0.00 0.00 0.00 0.00 0.01 0.03 0.00 0.00 0.00 0.02 0.03 0.12 0.08 0.03 0.03 0.03 0.02 0.00 0.00 0.01 0.03 0.02 0.03 0.03 0.02 0.01 0.00 0.00 0.00 0.00 0.01 0.01 0.01 0.02 0.04 0.04
0.03 0.09 0.10 0.02 0.01 0.00 0.01 0.00 0.00 0.00 0.01 0.09 0.06 0.00 0.01 0.01 0.02 0.11 0.15 0.03 0.02 0.00 0.01 0.00 0.00 0.00 0.00 0.00 0.00 0.00 0.00 0.00 0.01 0.00 0.00 0.00 0.00 0.00 0.00 0.01 0.02 0.00 0.01
0.03 0.17 0.29 0.07 0.09 0.00 0.01 0.03 0.00 0.00 0.03 0.07 0.00 0.00 0.02 0.02 0.05 0.10 0.09 0.02 0.00 0.00 0.00 0.00 0.00 0.00 0.00 0.00 0.01 0.02 0.03 0.04 0.01 0.00 0.00 0.00 0.00 0.02 0.00 0.00 0.01 0.00 0.00
0.07 0.10 0.45 0.14 0.14 0.06 0.02 0.01 0.00 0.00 0.02 0.03 0.00 0.00 0.02 0.03 0.12 0.08 0.02 0.01 0.00 0.00 0.00 0.00 0.00 0.00 0.00 0.01 0.04 0.04 0.04 0.01 0.01 0.02 0.00 0.00 0.00 0.07 0.03 0.03 0.03 0.01 0.01
0.08 0.13 0.38 0.47 0.04 0.03 0.02 0.02 0.06 0.00 0.00 0.03 0.01 0.00 0.01 0.01 0.05 0.03 0.00 0.00 0.00 0.00 0.00 0.00 0.00 0.00 0.00 0.00 0.03 0.04 0.02 0.00 0.01 0.06 0.02 0.00 0.00 0.11 0.03 0.00 0.00 0.00 0.01
0.02 0.12 0.04 0.28 0.24 0.12 0.13 0.02 0.10 0.13 0.03 0.05 0.02 0.00 0.03 0.02 0.03 0.02 0.00 0.00 0.00 0.00 0.00 0.00 0.00 0.00 0.00 0.00 0.00 0.00 0.02 0.03 0.00 0.03 0.06 0.00 0.00 0.04 0.06 0.12 0.08 0.12 0.03
0.00 0.00 0.00 0.00 0.01 0.01 0.08 0.10 0.22 0.26 0.14 0.09 0.01 0.04 0.12 0.01 0.01 0.00 0.00 0.00 0.00 0.00 0.00 0.00 0.00 0.00 0.00 0.00 0.01 0.00 0.00 0.00 0.04 0.06 0.06 0.02 0.00 0.01 0.11 0.07 0.05 0.16 0.07
0.01 0.00 0.00 0.00 0.00 0.01 0.06 0.37 0.35 0.31 0.17 0.04 0.18 0.31 0.12 0.01 0.00 0.00 0.00 0.00 0.00 0.00 0.00 0.00 0.00 0.00 0.00 0.00 0.01 0.02 0.07 0.05 0.04 0.05 0.03 0.01 0.00 0.04 0.20 0.06 0.05 0.01 0.00
0.00 0.00 0.00 0.00 0.00 0.01 0.06 0.11 0.16 0.11 0.04 0.01 0.00 0.00 0.00 0.00 0.00 0.00 0.00 0.00 0.01 0.00 0.00 0.00 0.00 0.00 0.00 0.00 0.01 0.04 0.05 0.02 0.00 0.01 0.00 0.00 0.00 0.00 0.16 0.04 0.06 0.05 0.09
0.00 0.00 0.00 0.00 0.00 0.00 0.03 0.07 0.10 0.03 0.01 0.00 0.02 0.00 0.00 0.00 0.00 0.00 0.00 0.00 0.00 0.00 0.00 0.00 0.00 0.01 0.00 0.00 0.00 0.00 0.00 0.01 0.00 0.01 0.00 0.00 0.00 0.00 0.00 0.00 0.01 0.03 0.09
0.00 0.00 0.00 0.00 0.00 0.00 0.00 0.03 0.04 0.00 0.00 0.03 0.03 0.00 0.00 0.00 0.00 0.01 0.01 0.01 0.00 0.01 0.02 0.01 0.00 0.01 0.01 0.00 0.00 0.02 0.01 0.00 0.00 0.01 0.00 0.00 0.00 0.00 0.00 0.00 0.01 0.04 0.05
0.00 0.00 0.00 0.00 0.00 0.00 0.00 0.00 0.00 0.00 0.01 0.01 0.00 0.00 0.00 0.00 0.00 0.03 0.01 0.00 0.01 0.02 0.02 0.02 0.01 0.02 0.00 0.00 0.00 0.00 0.01 0.01 0.00 0.00 0.00 0.00 0.00 0.00 0.00 0.00 0.05 0.11 0.07
0.00 0.00 0.00 0.00 0.00 0.00 0.00 0.00 0.00 0.00 0.01 0.00 0.00 0.00 0.00 0.00 0.00 0.05 0.01 0.01 0.06 0.05 0.01 0.01 0.00 0.01 0.00 0.00 0.00 0.00 0.00 0.00 0.00 0.00 0.00 0.00 0.03 0.00 0.00 0.00 0.02 0.07 0.03
0.00 0.00 0.00 0.00 0.00 0.00 0.00 0.00 0.00 0.00 0.00 0.00 0.00 0.00 0.01 0.02 0.01 0.09 0.05 0.05 0.05 0.04 0.01 0.01 0.01 0.02 0.00 0.00 0.00 0.00 0.00 0.00 0.00 0.00 0.02 0.01 0.06 0.06 0.04 0.02 0.01 0.00 0.00
0.00 0.00 0.00 0.00 0.00 0.00 0.00 0.00 0.00 0.00 0.00 0.00 0.00 0.00 0.00 0.00 0.00 0.04 0.09 0.08 0.03 0.09 0.01 0.00 0.02 0.01 0.00 0.00 0.00 0.00 0.00 0.00 0.00 0.00 0.03 0.08 0.16 0.11 0.08 0.04 0.02 0.00 0.00
0.00 0.00 0.00 0.00 0.00 0.00 0.00 0.00 0.01 0.00 0.00 0.00 0.00 0.00 0.00 0.00 0.00 0.02 0.05 0.01 0.01 0.03 0.04 0.00 0.00 0.01 0.00 0.01 0.01 0.01 0.00 0.00 0.00 0.00 0.02 0.06 0.09 0.07 0.08 0.09 0.03 0.00 0.00
0.00 0.00 0.00 0.00 0.00 0.00 0.00 0.00 0.01 0.00 0.00 0.00 0.00 0.00 0.00 0.00 0.00 0.00 0.01 0.02 0.00 0.00 0.01 0.00 0.00 0.00 0.00 0.00 0.00 0.03 0.00 0.00 0.00 0.00 0.02 0.07 0.08 0.04 0.07 0.01 0.02 0.01 0.00
0.00 0.00 0.00 0.00 0.00 0.00 0.00 0.00 0.00 0.00 0.00 0.00 0.00 0.00 0.00 0.00 0.00 0.00 0.00 0.00 0.00 0.01 0.01 0.02 0.00 0.00 0.00 0.00 0.00 0.00 0.01 0.01 0.00 0.01 0.03 0.03 0.07 0.05 0.04 0.01 0.02 0.03 0.02
0.00 0.00 0.00 0.00 0.00 0.00 0.00 0.00 0.00 0.00 0.00 0.00 0.01 0.00 0.00 0.00 0.00 0.00 0.00 0.00 0.00 0.01 0.01 0.01 0.01 0.02 0.00 0.00 0.00 0.00 0.00 0.00 0.00 0.01 0.08 0.04 0.03 0.03 0.04 0.01 0.03 0.01 0.05
0.00 0.00 0.00 0.00 0.00 0.00 0.00 0.00 0.00 0.00 0.00 0.00 0.00 0.01 0.00 0.00 0.00 0.00 0.00 0.00 0.00 0.00 0.00 0.00 0.00 0.03 0.01 0.00 0.01 0.00 0.01 0.00 0.00 0.01 0.03 0.04 0.02 0.01 0.00 0.02 0.02 0.03 0.03
0.00 0.00 0.00 0.00 0.00 0.00 0.00 0.00 0.00 0.00 0.00 0.00 0.00 0.00 0.00 0.00 0.00 0.00 0.00 0.00 0.00 0.00 0.00 0.00 0.00 0.00 0.01 0.00 0.03 0.03 0.00 0.01 0.01 0.04 0.01 0.00 0.00 0.00 0.00 0.01 0.01 0.01 0.07
0.00 0.00 0.00 0.00 0.00 0.00 0.00 0.00 0.00 0.00 0.00 0.01 0.02 0.00 0.02 0.02 0.00 0.00 0.00 0.00 0.00 0.00 0.00 0.00 0.00 0.00 0.00 0.00 0.01 0.04 0.04 0.03 0.03 0.02 0.05 0.01 0.00 0.00 0.00 0.00 0.00 0.02 0.07

GFSSE_prec_precacc12_165.txt.gz
Total_Precipitation_Accumulation
0.06 0.29 0.15 0.03 0.00 0.00 0.00 0.00 0.03 0.05 0.05 0.03 0.01 0.00 0.01 0.01 0.03 0.01 0.06 0.08 0.09 0.06 0.05 0.03 0.02 0.02 0.01 0.04 0.10 0.06 0.07 0.06 0.04 0.04 0.05 0.03 0.06 0.08 0.12 0.07 0.02 0.03 0.27
0.00 0.05 0.17 0.07 0.01 0.03 0.04 0.01 0.00 0.01 0.02 0.00 0.00 0.01 0.01 0.03 0.05 0.02 0.00 0.02 0.05 0.04 0.02 0.04 0.01 0.00 0.01 0.02 0.05 0.03 0.06 0.04 0.10 0.22 0.13 0.14 0.06 0.05 0.05 0.01 0.01 0.04 0.18
0.00 0.01 0.10 0.24 0.10 0.06 0.03 0.00 0.00 0.00 0.00 0.00 0.00 0.01 0.02 0.02 0.01 0.01 0.01 0.04 0.01 0.03 0.03 0.01 0.02 0.02 0.03 0.07 0.05 0.09 0.13 0.12 0.09 0.14 0.23 0.25 0.12 0.04 0.01 0.01 0.01 0.02 0.05
0.00 0.00 0.01 0.15 0.12 0.06 0.00 0.00 0.00 0.00 0.00 0.00 0.01 0.07 0.00 0.01 0.00 0.00 0.03 0.06 0.01 0.02 0.03 0.01 0.01 0.02 0.06 0.10 0.06 0.10 0.13 0.10 0.04 0.02 0.03 0.04 0.05 0.03 0.02 0.03 0.04 0.04 0.05
0.00 0.00 0.00 0.06 0.07 0.10 0.00 0.01 0.00 0.00 0.01 0.08 0.12 0.02 0.00 0.04 0.01 0.02 0.05 0.04 0.02 0.03 0.03 0.02 0.00 0.00 0.01 0.03 0.02 0.03 0.03 0.02 0.01 0.00 0.00 0.00 0.00 0.02 0.02 0.02 0.03 0.04 0.04
0.00 0.10 0.12 0.02 0.09 0.09 0.02 0.02 0.00 0.00 0.02 0.27 0.19 0.01 0.03 0.01 0.00 0.04 0.06 0.02 0.04 0.01 0.00 0.00 0.00 0.00 0.00 0.00 0.00 0.00 0.00 0.00 0.00 0.00 0.00 0.00 0.00 0.02 0.03 0.01 0.02 0.00 0.01
0.00 0.19 0.45 0.05 0.03 0.06 0.05 0.13 0.01 0.00 0.09 0.23 0.02 0.03 0.05 0.01 0.01 0.05 0.05 0.01 0.00 0.00 0.00 0.00 0.00 0.00 0.00 0.00 0.01 0.02 0.03 0.04 0.01 0.00 0.00 0.00 0.01 0.12 0.08 0.04 0.06 0.00 0.00
0.07 0.17 0.66 0.11 0.09 0.08 0.04 0.05 0.01 0.00 0.13 0.10 0.00 0.03 0.03 0.03 0.06 0.04 0.00 0.00 0.00 0.00 0.00 0.00 0.00 0.00 0.00 0.01 0.04 0.04 0.04 0.01 0.01 0.02 0.00 0.00 0.02 0.17 0.15 0.14 0.15 0.01 0.00
0.09 0.21 0.47 0.50 0.05 0.10 0.08 0.02 0.02 0.00 0.08 0.06 0.02 0.01 0.05 0.05 0.05 0.01 0.00 0.00 0.00 0.00 0.00 0.00 0.00 0.00 0.00 0.00 0.03 0.04 0.02 0.00 0.01 0.06 0.02 0.00 0.01 0.13 0.05 0.01 0.01 0.00 0.01
0.02 0.13 0.06 0.33 0.35 0.18 0.18 0.02 0.02 0.17 0.16 0.11 0.06 0.07 0.11 0.06 0.05 0.02 0.00 0.00 0.00 0.00 0.00 0.00 0.00 0.00 0.00 0.00 0.00 0.00 0.02 0.03 0.00 0.03 0.05 0.00 0.00 0.06 0.07 0.14 0.09 0.15 0.03
0.00 0.00 0.00 0.00 0.02 0.06 0.11 0.16 0.28 0.34 0.28 0.25 0.06 0.12 0.17 0.04 0.02 0.01 0.00 0.00 0.00 0.00 0.00 0.00 0.00 0.01 0.00 0.00 0.01 0.00 0.00 0.00 0.01 0.05 0.05 0.02 0.00 0.01 0.11 0.07 0.05 0.16 0.07
0.00 0.00 0.00 0.00 0.00 0.01 0.08 0.48 0.43 0.39 0.36 0.22 0.26 0.41 0.17 0.02 0.01 0.00 0.00 0.00 0.00 0.00 0.00 0.00 0.00 0.00 0.00 0.00 0.01 0.02 0.07 0.05 0.03 0.04 0.03 0.01 0.00 0.04 0.20 0.06 0.05 0.01 0.00
0.00 0.00 0.00 0.00 0.00 0.02 0.10 0.11 0.19 0.20 0.15 0.14 0.01 0.01 0.00 0.00 0.00 0.00 0.00 0.00 0.01 0.00 0.00 0.00 0.00 0.00 0.00 0.00 0.01 0.04 0.05 0.02 0.00 0.01 0.00 0.00 0.00 0.00 0.16 0.04 0.06 0.06 0.13
0.00 0.00 0.00 0.00 0.00 0.00 0.03 0.07 0.14 0.08 0.07 0.14 0.05 0.00 0.00 0.00 0.00 0.00 0.00 0.00 0.00 0.00 0.00 0.00 0.00 0.01 0.00 0.00 0.00 0.00 0.00 0.00 0.00 0.01 0.00 0.00 0.00 0.00 0.00 0.00 0.01 0.07 0.15
0.00 0.00 0.00 0.00 0.00 0.00 0.00 0.06 0.11 0.01 0.02 0.06 0.04 0.00 0.00 0.00 0.00 0.00 0.00 0.00 0.00 0.00 0.00 0.00 0.00 0.01 0.01 0.00 0.00 0.01 0.00 0.00 0.00 0.01 0.00 0.00 0.00 0.00 0.00 0.00 0.04 0.15 0.19
0.00 0.00 0.00 0.00 0.00 0.00 0.00 0.05 0.05 0.00 0.01 0.03 0.00 0.00 0.00 0.00 0.00 0.01 0.00 0.00 0.00 0.01 0.00 0.01 0.00 0.01 0.00 0.00 0.00 0.00 0.00 0.00 0.00 0.00 0.00 0.00 0.00 0.00 0.00 0.00 0.07 0.21 0.21
0.00 0.00 0.00 0.00 0.00 0.00 0.00 0.00 0.01 0.00 0.01 0.03 0.00 0.00 0.00 0.00 0.00 0.03 0.00 0.00 0.00 0.01 0.00 0.00 0.00 0.01 0.00 0.00 0.00 0.00 0.00 0.00 0.00 0.00 0.00 0.00 0.02 0.00 0.00 0.00 0.02 0.09 0.06
0.00 0.00 0.00 0.00 0.00 0.00 0.00 0.00 0.00 0.00 0.01 0.01 0.00 0.00 0.00 0.00 0.00 0.00 0.00 0.00 0.00 0.01 0.01 0.00 0.00 0.01 0.00 0.00 0.00 0.00 0.00 0.00 0.00 0.00 0.00 0.00 0.00 0.02 0.02 0.02 0.01 0.00 0.00
0.00 0.00 0.00 0.00 0.00 0.00 0.00 0.00 0.00 0.00 0.01 0.00 0.00 0.00 0.00 0.00 0.00 0.00 0.00 0.00 0.01 0.01 0.00 0.00 0.00 0.00 0.00 0.00 0.00 0.00 0.00 0.00 0.00 0.00 0.00 0.00 0.03 0.03 0.05 0.02 0.02 0.00 0.00
0.00 0.00 0.00 0.00 0.00 0.00 0.00 0.00 0.00 0.00 0.00 0.00 0.00 0.00 0.00 0.00 0.00 0.01 0.00 0.01 0.00 0.01 0.00 0.00 0.00 0.01 0.00 0.00 0.00 0.00 0.00 0.00 0.00 0.00 0.00 0.00 0.00 0.02 0.02 0.02 0.03 0.00 0.00
0.00 0.00 0.00 0.00 0.00 0.00 0.00 0.00 0.00 0.00 0.00 0.00 0.00 0.00 0.00 0.00 0.00 0.00 0.00 0.01 0.00 0.00 0.00 0.00 0.00 0.00 0.00 0.00 0.00 0.00 0.00 0.00 0.00 0.00 0.00 0.00 0.02 0.01 0.02 0.01 0.02 0.01 0.00
0.00 0.00 0.00 0.00 0.00 0.00 0.00 0.00 0.00 0.00 0.00 0.00 0.00 0.00 0.00 0.00 0.00 0.00 0.00 0.00 0.00 0.01 0.02 0.02 0.00 0.00 0.00 0.00 0.00 0.00 0.00 0.00 0.00 0.00 0.01 0.02 0.03 0.00 0.00 0.01 0.02 0.03 0.01
0.00 0.00 0.00 0.00 0.00 0.00 0.00 0.00 0.00 0.00 0.00 0.00 0.00 0.00 0.00 0.00 0.00 0.00 0.00 0.00 0.00 0.01 0.01 0.01 0.01 0.02 0.00 0.00 0.00 0.01 0.04 0.01 0.00 0.00 0.00 0.01 0.01 0.00 0.00 0.01 0.02 0.00 0.05
0.00 0.00 0.00 0.00 0.00 0.00 0.00 0.00 0.00 0.00 0.00 0.00 0.00 0.00 0.00 0.00 0.00 0.00 0.00 0.00 0.00 0.00 0.00 0.00 0.00 0.03 0.02 0.02 0.02 0.00 0.02 0.03 0.03 0.02 0.01 0.00 0.00 0.00 0.00 0.01 0.02 0.03 0.03
0.00 0.00 0.00 0.00 0.00 0.00 0.00 0.00 0.00 0.00 0.00 0.00 0.00 0.00 0.00 0.00 0.00 0.00 0.00 0.00 0.00 0.00 0.00 0.00 0.00 0.00 0.01 0.02 0.06 0.04 0.01 0.02 0.02 0.06 0.02 0.00 0.00 0.00 0.00 0.00 0.01 0.01 0.07
0.00 0.00 0.00 0.00 0.00 0.00 0.00 0.00 0.00 0.00 0.00 0.00 0.00 0.00 0.00 0.00 0.00 0.00 0.00 0.00 0.00 0.00 0.00 0.00 0.00 0.00 0.00 0.00 0.02 0.07 0.06 0.04 0.05 0.05 0.08 0.01 0.00 0.00 0.00 0.00 0.00 0.02 0.05

GFSSE_prec_precacc12_168.txt.gz
Total_Precipitation_Accumulation
0.02 0.23 0.13 0.06 0.05 0.03 0.01 0.02 0.06 0.09 0.10 0.04 0.01 0.00 0.00 0.00 0.01 0.01 0.02 0.06 0.14 0.06 0.05 0.03 0.02 0.01 0.00 0.01 0.01 0.01 0.00 0.00 0.00 0.00 0.00 0.01 0.06 0.11 0.14 0.09 0.11 0.05 0.27
0.00 0.05 0.13 0.08 0.01 0.03 0.04 0.00 0.02 0.02 0.03 0.00 0.00 0.01 0.01 0.04 0.05 0.03 0.03 0.05 0.10 0.03 0.02 0.04 0.01 0.00 0.01 0.01 0.01 0.00 0.00 0.00 0.00 0.03 0.12 0.13 0.08 0.10 0.08 0.01 0.05 0.09 0.19
0.00 0.01 0.08 0.24 0.10 0.06 0.03 0.00 0.00 0.00 0.00 0.00 0.00 0.00 0.02 0.02 0.02 0.01 0.03 0.05 0.02 0.03 0.04 0.02 0.02 0.02 0.02 0.02 0.02 0.00 0.02 0.01 0.01 0.05 0.18 0.25 0.13 0.05 0.01 0.01 0.02 0.06 0.13
0.00 0.00 0.01 0.16 0.12 0.06 0.00 0.00 0.00 0.00 0.00 0.02 0.02 0.02 0.00 0.03 0.02 0.02 0.04 0.06 0.01 0.02 0.03 0.01 0.01 0.01 0.05 0.08 0.04 0.03 0.05 0.05 0.02 0.02 0.03 0.05 0.06 0.03 0.02 0.03 0.05 0.05 0.08
0.00 0.00 0.00 0.06 0.07 0.11 0.01 0.01 0.00 0.00 0.04 0.14 0.21 0.07 0.01 0.07 0.01 0.04 0.07 0.03 0.02 0.04 0.02 0.02 0.00 0.00 0.01 0.02 0.01 0.02 0.02 0.02 0.01 0.00 0.00 0.00 0.00 0.02 0.03 0.03 0.04 0.05 0.06
0.01 0.10 0.12 0.03 0.11 0.15 0.03 0.03 0.00 0.00 0.05 0.31 0.31 0.09 0.07 0.04 0.02 0.05 0.06 0.02 0.06 0.02 0.00 0.00 0.00 0.00 0.00 0.00 0.00 0.00 0.00 0.00 0.00 0.00 0.00 0.00 0.01 0.05 0.04 0.04 0.04 0.06 0.08
0.04 0.16 0.34 0.07 0.13 0.11 0.11 0.16 0.03 0.00 0.13 0.32 0.06 0.08 0.07 0.06 0.06 0.09 0.05 0.02 0.01 0.00 0.00 0.00 0.00 0.00 0.00 0.00 0.01 0.01 0.02 0.04 0.00 0.00 0.00 0.00 0.01 0.12 0.09 0.05 0.07 0.00 0.01
0.16 0.18 0.66 0.24 0.31 0.27 0.12 0.15 0.13 0.01 0.25 0.20 0.06 0.10 0.09 0.13 0.14 0.07 0.00 0.00 0.00 0.00 0.00 0.00 0.00 0.00 0.00 0.01 0.04 0.03 0.02 0.01 0.00 0.01 0.00 0.00 0.02 0.17 0.15 0.15 0.21 0.09 0.01
0.14 0.30 0.57 0.47 0.11 0.24 0.21 0.24 0.27 0.09 0.27 0.15 0.08 0.06 0.11 0.12 0.08 0.02 0.01 0.00 0.00 0.00 0.00 0.00 0.00 0.00 0.00 0.00 0.03 0.03 0.01 0.00 0.01 0.06 0.02 0.00 0.01 0.13 0.05 0.01 0.01 0.03 0.02
0.07 0.19 0.08 0.45 0.52 0.23 0.29 0.13 0.18 0.34 0.41 0.23 0.16 0.16 0.16 0.12 0.07 0.03 0.00 0.00 0.00 0.00 0.00 0.00 0.00 0.00 0.00 0.00 0.00 0.00 0.00 0.01 0.00 0.01 0.03 0.00 0.00 0.06 0.07 0.14 0.10 0.21 0.15
0.01 0.00 0.01 0.04 0.17 0.17 0.28 0.21 0.30 0.40 0.41 0.38 0.14 0.20 0.23 0.11 0.04 0.01 0.00 0.00 0.00 0.00 0.00 0.00 0.00 0.01 0.00 0.00 0.01 0.00 0.00 0.00 0.00 0.02 0.02 0.02 0.00 0.01 0.11 0.07 0.05 0.16 0.11
0.00 0.00 0.01 0.01 0.01 0.02 0.11 0.48 0.43 0.41 0.39 0.31 0.39 0.49 0.26 0.09 0.01 0.00 0.00 0.00 0.00 0.00 0.00 0.00 0.00 0.00 0.00 0.00 0.00 0.01 0.07 0.04 0.01 0.03 0.02 0.01 0.00 0.04 0.20 0.06 0.05 0.01 0.08
0.00 0.00 0.00 0.00 0.00 0.04 0.13 0.11 0.19 0.21 0.15 0.18 0.10 0.13 0.05 0.01 0.00 0.00 0.00 0.00 0.01 0.00 0.00 0.00 0.00 0.00 0.00 0.00 0.00 0.03 0.05 0.02 0.00 0.00 0.00 0.00 0.00 0.00 0.16 0.04 0.06 0.10 0.27
0.00 0.00 0.00 0.00 0.00 0.00 0.03 0.07 0.16 0.10 0.09 0.22 0.20 0.09 0.01 0.00 0.00 0.00 0.00 0.00 0.00 0.00 0.00 0.00 0.00 0.00 0.00 0.00 0.00 0.00 0.00 0.00 0.00 0.00 0.00 0.00 0.00 0.00 0.00 0.00 0.01 0.07 0.17
0.00 0.00 0.00 0.00 0.01 0.00 0.00 0.06 0.13 0.04 0.06 0.22 0.24 0.05 0.00 0.00 0.00 0.00 0.00 0.00 0.00 0.00 0.00 0.00 0.00 0.00 0.00 0.00 0.00 0.00 0.00 0.00 0.00 0.00 0.00 0.00 0.00 0.00 0.00 0.00 0.04 0.16 0.30
0.00 0.00 0.00 0.00 0.02 0.00 0.00 0.05 0.06 0.00 0.01 0.09 0.03 0.00 0.00 0.00 0.00 0.00 0.00 0.00 0.00 0.00 0.00 0.00 0.00 0.00 0.00 0.00 0.00 0.00 0.00 0.00 0.00 0.00 0.00 0.00 0.00 0.00 0.00 0.00 0.07 0.20 0.21
0.00 0.00 0.00 0.00 0.00 0.00 0.00 0.02 0.02 0.00 0.01 0.03 0.00 0.00 0.00 0.00 0.00 0.00 0.00 0.00 0.00 0.00 0.00 0.00 0.00 0.00 0.00 0.00 0.00 0.00 0.00 0.00 0.00 0.00 0.00 0.00 0.00 0.00 0.00 0.00 0.01 0.06 0.05
0.00 0.00 0.00 0.00 0.00 0.00 0.00 0.00 0.00 0.00 0.01 0.01 0.00 0.00 0.00 0.00 0.00 0.00 0.00 0.00 0.00 0.00 0.00 0.00 0.00 0.00 0.00 0.00 0.00 0.00 0.00 0.00 0.00 0.00 0.00 0.00 0.00 0.01 0.00 0.00 0.00 0.00 0.00
0.00 0.00 0.00 0.00 0.00 0.00 0.00 0.00 0.00 0.00 0.01 0.00 0.00 0.00 0.00 0.00 0.00 0.00 0.00 0.00 0.01 0.00 0.00 0.00 0.00 0.00 0.00 0.00 0.00 0.00 0.00 0.00 0.00 0.00 0.00 0.00 0.02 0.02 0.00 0.00 0.00 0.00 0.00
0.00 0.00 0.00 0.00 0.00 0.01 0.01 0.00 0.00 0.00 0.00 0.00 0.00 0.00 0.00 0.00 0.00 0.01 0.00 0.00 0.00 0.00 0.00 0.00 0.00 0.01 0.00 0.00 0.00 0.00 0.00 0.00 0.00 0.00 0.00 0.00 0.00 0.00 0.00 0.00 0.00 0.00 0.00
0.00 0.00 0.00 0.00 0.00 0.02 0.01 0.00 0.00 0.00 0.00 0.00 0.00 0.00 0.00 0.00 0.00 0.00 0.00 0.01 0.00 0.00 0.00 0.00 0.00 0.00 0.00 0.00 0.00 0.00 0.00 0.00 0.00 0.00 0.00 0.00 0.01 0.01 0.00 0.00 0.00 0.01 0.00
0.00 0.00 0.00 0.00 0.00 0.00 0.00 0.00 0.00 0.00 0.00 0.00 0.00 0.00 0.00 0.00 0.00 0.00 0.00 0.00 0.00 0.01 0.03 0.02 0.00 0.00 0.00 0.00 0.00 0.00 0.00 0.00 0.00 0.00 0.00 0.01 0.01 0.00 0.00 0.00 0.00 0.02 0.01
0.00 0.00 0.00 0.00 0.00 0.00 0.00 0.00 0.00 0.00 0.00 0.00 0.00 0.00 0.00 0.00 0.00 0.00 0.00 0.00 0.00 0.01 0.03 0.05 0.03 0.03 0.00 0.00 0.00 0.03 0.06 0.02 0.00 0.00 0.00 0.00 0.00 0.00 0.00 0.00 0.00 0.00 0.01
0.00 0.00 0.00 0.00 0.00 0.00 0.00 0.00 0.00 0.00 0.00 0.00 0.00 0.00 0.00 0.00 0.00 0.00 0.00 0.00 0.00 0.00 0.01 0.01 0.00 0.03 0.02 0.02 0.01 0.00 0.03 0.07 0.07 0.03 0.00 0.00 0.00 0.00 0.00 0.00 0.00 0.00 0.01
0.00 0.00 0.00 0.00 0.00 0.00 0.00 0.00 0.00 0.00 0.00 0.00 0.00 0.00 0.00 0.00 0.00 0.00 0.00 0.00 0.00 0.00 0.00 0.00 0.00 0.01 0.02 0.02 0.06 0.03 0.01 0.01 0.03 0.09 0.02 0.00 0.00 0.00 0.00 0.00 0.00 0.01 0.02
0.00 0.00 0.00 0.00 0.00 0.00 0.00 0.00 0.00 0.00 0.00 0.00 0.00 0.00 0.00 0.00 0.00 0.00 0.00 0.00 0.00 0.00 0.00 0.00 0.00 0.00 0.00 0.00 0.02 0.05 0.03 0.01 0.04 0.04 0.04 0.00 0.00 0.00 0.00 0.00 0.00 0.00 0.02

GFSSE_prec_precacc12_171.txt.gz
Total_Precipitation_Accumulation
0.00 0.08 0.09 0.06 0.12 0.09 0.02 0.03 0.09 0.09 0.11 0.04 0.05 0.05 0.00 0.01 0.03 0.01 0.02 0.02 0.11 0.05 0.02 0.02 0.01 0.00 0.00 0.01 0.01 0.01 0.00 0.00 0.00 0.00 0.00 0.00 0.02 0.06 0.12 0.20 0.42 0.25 0.24
0.00 0.04 0.07 0.06 0.01 0.01 0.01 0.00 0.02 0.03 0.03 0.00 0.00 0.00 0.01 0.06 0.07 0.04 0.03 0.04 0.10 0.03 0.02 0.04 0.01 0.00 0.00 0.00 0.01 0.00 0.00 0.00 0.01 0.02 0.05 0.08 0.06 0.10 0.08 0.06 0.56 0.45 0.19
0.00 0.01 0.05 0.16 0.08 0.01 0.00 0.00 0.00 0.00 0.00 0.00 0.00 0.02 0.02 0.03 0.03 0.03 0.04 0.07 0.04 0.02 0.03 0.01 0.01 0.00 0.00 0.00 0.00 0.00 0.00 0.00 0.04 0.05 0.10 0.16 0.11 0.04 0.01 0.03 0.08 0.19 0.13
0.00 0.00 0.00 0.07 0.13 0.05 0.00 0.00 0.00 0.00 0.01 0.03 0.03 0.08 0.03 0.04 0.03 0.03 0.04 0.08 0.07 0.03 0.03 0.01 0.00 0.00 0.00 0.00 0.00 0.02 0.03 0.01 0.01 0.02 0.16 0.05 0.07 0.02 0.02 0.04 0.05 0.09 0.12
0.00 0.00 0.00 0.07 0.09 0.11 0.01 0.01 0.00 0.01 0.04 0.17 0.23 0.18 0.07 0.11 0.01 0.05 0.07 0.06 0.04 0.04 0.02 0.01 0.00 0.00 0.00 0.00 0.00 0.00 0.00 0.00 0.00 0.00 0.00 0.01 0.43 0.02 0.03 0.04 0.04 0.03 0.05
0.01 0.09 0.12 0.03 0.11 0.16 0.02 0.02 0.00 0.01 0.07 0.36 0.34 0.15 0.17 0.09 0.05 0.07 0.08 0.06 0.07 0.02 0.00 0.00 0.00 0.00 0.00 0.00 0.00 0.00 0.00 0.02 0.07 0.00 0.00 0.00 0.01 0.05 0.04 0.04 0.07 0.08 0.07
0.04 0.13 0.30 0.06 0.12 0.12 0.12 0.16 0.03 0.01 0.13 0.31 0.10 0.17 0.14 0.11 0.09 0.14 0.06 0.04 0.01 0.00 0.00 0.00 0.00 0.00 0.00 0.00 0.00 0.00 0.02 0.03 0.05 0.00 0.00 0.00 0.01 0.12 0.09 0.04 0.07 0.02 0.02
0.12 0.19 0.63 0.23 0.34 0.27 0.21 0.29 0.17 0.01 0.26 0.24 0.13 0.21 0.15 0.17 0.17 0.09 0.00 0.00 0.00 0.00 0.00 0.00 0.00 0.00 0.00 0.00 0.00 0.00 0.00 0.00 0.00 0.00 0.00 0.00 0.02 0.17 0.15 0.15 0.21 0.10 0.02
0.12 0.31 0.44 0.29 0.11 0.27 0.35 0.37 0.42 0.18 0.39 0.26 0.23 0.12 0.15 0.15 0.10 0.02 0.01 0.00 0.00 0.00 0.00 0.00 0.00 0.00 0.00 0.00 0.00 0.00 0.00 0.00 0.00 0.02 0.01 0.00 0.01 0.13 0.05 0.02 0.01 0.07 0.06
0.09 0.19 0.08 0.41 0.55 0.28 0.32 0.19 0.26 0.41 0.46 0.42 0.27 0.23 0.27 0.16 0.07 0.03 0.00 0.00 0.00 0.00 0.00 0.00 0.00 0.00 0.00 0.00 0.00 0.00 0.00 0.22 0.15 0.00 0.00 0.00 0.00 0.06 0.07 0.10 0.10 0.32 0.28
0.02 0.01 0.01 0.08 0.52 0.40 0.43 0.26 0.33 0.39 0.39 0.43 0.19 0.22 0.26 0.12 0.04 0.01 0.00 0.00 0.00 0.00 0.00 0.00 0.00 0.01 0.00 0.00 0.00 0.00 0.00 0.06 0.07 0.00 0.01 0.02 0.00 0.01 0.11 0.09 0.08 0.26 0.26
0.01 0.02 0.04 0.16 0.04 0.12 0.13 0.41 0.43 0.39 0.37 0.32 0.51 0.58 0.31 0.12 0.01 0.00 0.00 0.00 0.00 0.00 0.00 0.00 0.00 0.00 0.00 0.01 0.02 0.08 0.01 0.02 0.01 0.01 0.00 0.01 0.00 0.04 0.20 0.07 0.07 0.40 0.34
0.01 0.01 0.01 0.02 0.01 0.04 0.14 0.10 0.13 0.20 0.16 0.18 0.14 0.30 0.09 0.01 0.00 0.00 0.00 0.00 0.01 0.00 0.00 0.00 0.00 0.00 0.00 0.00 0.01 0.07 0.00 0.00 0.03 0.06 0.00 0.00 0.00 0.00 0.14 0.03 0.07 0.16 0.38
0.00 0.00 0.01 0.01 0.00 0.00 0.03 0.06 0.15 0.10 0.09 0.21 0.21 0.13 0.02 0.00 0.00 0.00 0.00 0.00 0.00 0.00 0.00 0.00 0.00 0.00 0.00 0.00 0.01 0.00 0.00 0.00 0.00 0.00 0.00 0.00 0.00 0.00 0.00 0.00 0.01 0.07 0.18
0.00 0.01 0.01 0.00 0.02 0.03 0.00 0.06 0.13 0.04 0.07 0.22 0.27 0.10 0.00 0.00 0.00 0.00 0.00 0.00 0.00 0.00 0.00 0.00 0.00 0.00 0.00 0.01 0.01 0.00 0.00 0.00 0.00 0.00 0.02 0.00 0.00 0.00 0.00 0.00 0.04 0.15 0.30
0.00 0.01 0.00 0.01 0.02 0.03 0.01 0.05 0.06 0.00 0.04 0.09 0.05 0.03 0.00 0.00 0.00 0.00 0.00 0.00 0.00 0.00 0.00 0.00 0.00 0.00 0.00 0.00 0.00 0.00 0.00 0.00 0.00 0.00 0.02 0.00 0.00 0.00 0.00 0.00 0.03 0.14 0.16
0.00 0.00 0.00 0.00 0.00 0.01 0.00 0.02 0.01 0.00 0.03 0.03 0.01 0.02 0.00 0.00 0.00 0.00 0.00 0.00 0.00 0.00 0.00 0.00 0.00 0.00 0.00 0.00 0.00 0.00 0.00 0.00 0.00 0.00 0.00 0.00 0.00 0.00 0.00 0.00 0.00 0.04 0.03
0.00 0.00 0.00 0.00 0.00 0.00 0.00 0.00 0.00 0.00 0.01 0.01 0.00 0.00 0.00 0.00 0.00 0.00 0.00 0.00 0.00 0.00 0.00 0.00 0.00 0.00 0.00 0.00 0.00 0.00 0.00 0.00 0.00 0.00 0.00 0.00 0.00 0.00 0.00 0.00 0.00 0.00 0.00
0.00 0.00 0.00 0.00 0.00 0.00 0.00 0.00 0.00 0.00 0.01 0.00 0.00 0.00 0.00 0.00 0.00 0.00 0.00 0.00 0.00 0.00 0.00 0.00 0.00 0.00 0.00 0.00 0.00 0.00 0.00 0.00 0.00 0.00 0.00 0.00 0.00 0.00 0.00 0.00 0.00 0.00 0.00
0.00 0.00 0.00 0.00 0.00 0.01 0.03 0.00 0.00 0.00 0.00 0.00 0.00 0.00 0.00 0.00 0.00 0.00 0.00 0.00 0.00 0.00 0.02 0.00 0.00 0.01 0.00 0.00 0.00 0.00 0.00 0.00 0.00 0.00 0.00 0.00 0.00 0.00 0.00 0.00 0.01 0.00 0.01
0.00 0.00 0.00 0.00 0.00 0.04 0.04 0.01 0.00 0.00 0.00 0.00 0.00 0.00 0.00 0.00 0.00 0.00 0.00 0.00 0.00 0.00 0.05 0.00 0.00 0.00 0.00 0.03 0.03 0.04 0.00 0.00 0.00 0.00 0.00 0.00 0.01 0.00 0.00 0.00 0.02 0.00 0.10
0.00 0.00 0.00 0.00 0.00 0.06 0.03 0.00 0.00 0.00 0.00 0.00 0.00 0.00 0.00 0.00 0.00 0.00 0.00 0.00 0.00 0.00 0.03 0.02 0.00 0.00 0.00 0.01 0.00 0.00 0.12 0.06 0.07 0.00 0.00 0.01 0.01 0.04 0.03 0.00 0.00 0.01 0.00
0.00 0.00 0.00 0.00 0.00 0.02 0.03 0.01 0.01 0.01 0.00 0.00 0.00 0.00 0.00 0.00 0.00 0.00 0.00 0.00 0.00 0.00 0.06 0.07 0.03 0.02 0.00 0.02 0.00 0.03 0.07 0.03 0.00 0.00 0.00 0.00 0.00 0.05 0.02 0.01 0.00 0.00 0.00
0.00 0.00 0.00 0.00 0.00 0.00 0.01 0.00 0.00 0.00 0.00 0.00 0.00 0.00 0.00 0.00 0.00 0.00 0.00 0.00 0.00 0.00 0.04 0.05 0.00 0.03 0.03 0.02 0.01 0.00 0.03 0.07 0.07 0.03 0.00 0.00 0.00 0.00 0.00 0.00 0.00 0.09 0.00
0.00 0.00 0.00 0.00 0.00 0.00 0.00 0.00 0.00 0.00 0.00 0.00 0.00 0.00 0.00 0.00 0.00 0.00 0.00 0.00 0.00 0.00 0.00 0.00 0.00 0.01 0.02 0.02 0.06 0.03 0.01 0.01 0.03 0.09 0.02 0.00 0.00 0.00 0.00 0.00 0.00 0.01 0.02
0.00 0.00 0.00 0.00 0.00 0.00 0.00 0.00 0.00 0.00 0.00 0.00 0.00 0.00 0.00 0.00 0.00 0.00 0.00 0.00 0.00 0.00 0.00 0.00 0.00 0.00 0.00 0.00 0.02 0.05 0.02 0.01 0.03 0.03 0.03 0.00 0.00 0.00 0.00 0.00 0.00 0.00 0.01